Cloud_Cover
0 0 0 0 0 0 0 11 39 2 5 64 9 5 5 5 5 5 11 7 77 100 100 80 70 74 91 97 86 92 100 89 84 47 74 100 81 100 94 75 63 86 18
0 0 14 0 0 17 19 26 4 5 5 20 9 13 5 55 68 78 88 5 87 100 100 100 99 100 38 86 62 100 100 100 100 100 100 100 100 55 74 46 11 39 51
0 0 0 0 0 6 1 1 11 5 56 100 100 81 100 74 81 55 100 67 100 100 100 100 100 100 87 100 100 100 100 91 100 100 100 100 99 100 100 100 98 99 81
0 0 7 3 0 2 31 9 9 7 93 100 100 100 100 100 99 81 92 100 100 100 100 93 99 100 100 100 100 100 100 100 100 100 49 67 68 24 59 83 49 89 99
0 0 0 0 44 3 70 63 5 5 89 100 100 100 100 100 100 100 96 100 100 92 85 33 98 100 100 100 100 100 100 100 94 74 11 21 96 91 93 79 80 55 93
5 3 61 100 100 100 92 98 75 2 13 100 100 99 20 100 100 100 100 100 100 100 100 100 100 100 100 100 99 100 100 100 74 55 97 14 16 95 23 34 85 24 6
4 13 100 100 100 86 100 100 100 28 98 95 97 100 13 100 100 100 100 100 100 100 100 100 100 100 100 100 100 100 100 100 82 22 76 11 89 81 87 54 90 94 88
5 100 100 98 80 90 100 100 100 100 100 78 38 100 98 85 100 100 100 100 100 100 100 100 100 100 100 90 99 96 12 21 5 4 8 72 5 6 5 5 15 5 6
45 100 100 43 24 26 100 100 100 100 100 98 85 100 100 87 100 100 100 100 100 100 100 100 100 100 95 37 100 25 32 47 54 47 58 45 37 33 5 11 49 5 16
100 98 100 57 22 27 100 100 100 100 100 100 100 100 96 100 91 100 100 98 98 100 100 100 100 100 100 100 100 79 96 53 59 40 32 74 88 60 95 83 24 7 50
100 85 100 87 32 96 100 100 100 100 100 100 100 99 96 51 100 100 84 100 100 100 100 92 78 100 100 83 100 100 65 97 55 51 12 44 75 59 20 45 80 42 9
100 100 100 100 100 100 100 100 100 100 100 100 100 100 83 42 100 100 100 100 100 100 100 100 100 100 100 100 100 100 100 100 96 100 94 100 67 61 13 9 80 10 33
100 100 100 100 100 100 100 100 100 100 100 100 100 100 44 53 100 100 100 100 100 100 100 100 100 100 100 100 100 100 99 94 17 100 100 100 100 64 64 65 79 5 5
80 100 100 100 100 100 100 100 100 100 100 100 100 100 100 100 100 100 100 100 100 100 100 100 100 100 100 100 98 39 56 99 89 100 93 100 94 20 12 18 68 81 88
81 100 100 100 100 100 100 100 100 100 100 100 100 100 100 100 100 100 100 100 100 100 100 100 100 100 100 87 99 100 100 35 100 100 100 85 34 67 92 20 57 19 100
32 100 100 100 100 100 80 100 42 97 100 100 100 100 100 100 100 100 100 100 100 100 100 100 100 100 96 100 93 100 98 100 100 100 63 13 6 15 88 61 20 79 99
81 100 100 100 100 97 94 91 98 100 100 100 100 100 100 100 100 100 100 100 100 100 100 100 76 86 99 100 74 100 100 46 100 96 100 99 95 5 5 76 98 100 100
100 100 100 100 100 100 100 100 100 100 100 100 100 100 100 100 100 100 100 100 100 100 100 100 91 100 100 100 88 100 100 100 100 100 100 57 34 30 66 100 100 100 100
100 100 100 100 100 100 100 100 100 100 100 100 100 100 100 100 100 100 100 97 100 100 100 99 100 99 97 100 98 97 100 100 100 70 62 19 31 95 100 100 100 100 100
100 98 100 100 100 100 100 100 100 100 100 100 100 100 100 100 100 100 100 100 100 100 100 100 100 100 100 98 89 94 75 36 5 86 29 27 99 100 100 100 100 100 100
100 90 100 100 100 100 100 91 100 100 100 100 100 100 100 100 100 100 100 100 100 100 100 100 100 100 100 98 100 96 50 100 89 77 45 99 100 100 100 100 100 100 100
100 100 84 100 100 100 100 100 100 100 100 100 100 100 100 100 100 100 100 100 100 100 100 100 100 100 75 100 87 100 78 90 94 100 100 100 100 100 100 100 100 100 100
100 100 100 100 100 100 100 100 100 100 100 100 100 100 100 100 100 100 100 100 100 100 100 100 100 98 100 96 100 100 94 100 100 100 100 100 100 100 100 100 100 100 100
100 100 100 100 100 100 100 100 100 100 100 100 100 100 100 100 100 100 100 100 100 100 100 100 100 100 100 100 100 100 99 100 100 100 100 100 100 100 100 100 100 100 100
36 100 98 100 100 100 100 100 100 100 100 100 100 100 100 100 100 100 100 100 100 100 100 100 100 100 100 100 100 100 100 100 100 100 100 100 100 100 100 100 99 99 100
31 100 100 100 100 100 100 100 100 100 100 100 100 100 100 100 100 100 100 100 100 100 100 100 100 100 100 100 100 100 100 100 100 100 100 100 100 100 100 100 100 100 100